Regional Weather Roundup
Issued by NWS

Home | Current Version | Previous Version | Graphics & Text | Print | Product List | Glossary Off
Versions: 1 2 3 4 5 6 7 8 9 10 11 12 13 14 15 16 17 18 19 20 21 22 23 24 25 26 27 28 29 30 31 32 33 34 35 36 37 38 39 40 41 42 43 44 45 46 47 48 49 50

000
ASUS43 KLSX 011359
RWRMO

WEATHER SUMMARY FOR MISSOURI
NATIONAL WEATHER SERVICE SPRINGFIELD MO
900 AM CDT WED JUL 01 2015

NOTE: "FAIR" INDICATES FEW OR NO CLOUDS BELOW 12,000 FEET WITH NO
       SIGNIFICANT WEATHER AND/OR OBSTRUCTIONS TO VISIBILITY.
       CURRENT SKY AND/OR WEATHER CONDITIONS ARE NOT AVAILABLE FOR
       CHILLICOTHE AND FARMINGTON.

MOZ001>031-035>038-043-044-053-054-011500-
...NORTHERN AND WESTERN MISSOURI...

CITY           SKY/WX    TMP DP  RH WIND       PRES   REMARKS
KANSAS CTY INT PTSUNNY   70  68  93 S9        29.85R FOG
KANSAS C DTWN  PTSUNNY   72  68  87 S9        29.84S
LEE`S SUMMIT   CLOUDY    69  67  93 S13       29.86F
ST JOSEPH      CLOUDY    73  68  84 SE5       29.82R
CHILLICOTHE      N/A     73  69  87 S6        29.87F
KIRKSVILLE     MOSUNNY   73  67  81 SE5       29.91S

$$
MOZ066>068-077>081-088>096-101>105-011500-
...SOUTHWEST MISSOURI...

CITY           SKY/WX    TMP DP  RH WIND       PRES   REMARKS
SPRINGFIELD    CLOUDY    69  66  90 E8        29.99R
JOPLIN         CLOUDY    78  72  81 CALM      29.94R

$$
MOZ032>034-039>042-045>050-055>058-069>072-011500-
...CENTRAL MISSOURI...

CITY           SKY/WX    TMP DP  RH WIND       PRES   REMARKS
COLUMBIA       CLOUDY    70  68  93 S14       29.92F
JEFFERSON CITY CLOUDY    70  68  93 SW6       29.93S
ROLLA          HVY RAIN  67  66  97 SW15      29.99R FOG
SEDALIA        CLOUDY    72  69  90 S10       29.94R
OSAGE BEACH    CLOUDY    68  64  88 S12       29.99R THUNDER

$$
MOZ051-052-059>065-011500-
...EAST CENTRAL MISSOURI...

CITY           SKY/WX    TMP DP  RH WIND       PRES   REMARKS
ST LOUIS INTL  CLOUDY    74  67  78 SW9       29.93R
SPIRIT OF STL  CLOUDY    72  69  90 SW6       29.93R
ST CHARLES     CLOUDY    72  69  90 SW3       29.92R

$$
MOZ072>076-082>087-097>100-106>115-011500-
...SOUTH CENTRAL AND SOUTHEAST MISSOURI...

CITY           SKY/WX    TMP DP  RH WIND       PRES   REMARKS
CAPE GIRARDEAU LGT RAIN  72  70  93 W6        29.96R
FARMINGTON     CLOUDY    70  66  88 W7        30.04R
WEST PLAINS    LGT RAIN  68  65  90 E7        30.01F

$$



USA.gov is the U.S. government's official web portal to all federal, state and local government web resources and services.